When you browse on this site, cookies collect data to enhance your experience and personalize the content and advertising you see.
Visit our Privacy Policy to learn more. By continuing to use the site, you agree to this use of cookies and data.
  • In Portugal
  • List of Countries
  • For 7 days
  • Water Temperature
  • Satellite Maps
  • Weather Map
  • Weather Widgets
  • user-avatar
    Login

    Hourly Weather Bolshaya Rudnica

    Today, 17 February, Sunday

    Time Temperature Precipitation Wind Pressure Humidity
    00:00 +1°C° 0 mm 6 mps 748 mmHg 78%
    01:00 -1°C° 0 mm 6 mps 747 mmHg 81%
    02:00 +1°C° 0 mm 6 mps 747 mmHg 82%
    03:00 +1°C° 0 mm 5 mps 747 mmHg 85%
    04:00 +1°C° 0 mm 5 mps 747 mmHg 87%
    05:00 0°C° 0 mm 5 mps 747 mmHg 89%
    06:00 0°C° 0 mm 5 mps 747 mmHg 89%
    07:00 -1°C° 0 mm 5 mps 747 mmHg 89%
    08:00 -1°C° 0 mm 5 mps 748 mmHg 88%
    09:00 -1°C° 0 mm 5 mps 748 mmHg 84%
    10:00 -2°C° 0 mm 6 mps 748 mmHg 80%
    11:00 -1°C° 0 mm 6 mps 749 mmHg 76%
    12:00 -1°C° 0 mm 6 mps 749 mmHg 75%
    13:00 -1°C° 0 mm 6 mps 750 mmHg 75%
    14:00 -1°C° 0 mm 6 mps 750 mmHg 74%
    15:00 -1°C° 0 mm 6 mps 751 mmHg 75%
    16:00 -1°C° 0 mm 5 mps 751 mmHg 76%
    17:00 -2°C° 0 mm 5 mps 752 mmHg 78%
    18:00 -2°C° 0 mm 5 mps 752 mmHg 78%
    19:00 -2°C° 0 mm 4 mps 753 mmHg 79%
    20:00 -3°C° 0 mm 4 mps 754 mmHg 80%
    21:00 -3°C° 0 mm 4 mps 754 mmHg 80%
    22:00 -4°C° 0 mm 4 mps 755 mmHg 81%
    23:00 -4°C° 0 mm 3 mps 756 mmHg 81%

    Tomorrow, 18 February, Monday

    Time Temperature Precipitation Wind Pressure Humidity
    00:00 -4°C° 0 mm 3 mps 756 mmHg 82%
    01:00 -5°C° 0 mm 3 mps 757 mmHg 82%
    02:00 -5°C° 0 mm 3 mps 757 mmHg 83%
    03:00 -4°C° 0 mm 2 mps 758 mmHg 84%
    04:00 -5°C° 0 mm 2 mps 758 mmHg 85%
    05:00 -5°C° 0 mm 2 mps 759 mmHg 86%
    06:00 -5°C° 0 mm 2 mps 759 mmHg 86%
    07:00 -3°C° 0 mm 1 mps 759 mmHg 87%
    08:00 -4°C° 0 mm 1 mps 760 mmHg 88%
    09:00 -3°C° 0 mm 1 mps 760 mmHg 81%
    10:00 -2°C° 0 mm 1 mps 760 mmHg 74%
    11:00 -1°C° 0 mm 1 mps 761 mmHg 66%
    12:00 0°C° 0 mm 1 mps 760 mmHg 63%
    13:00 0°C° 0 mm 1 mps 760 mmHg 60%
    14:00 +1°C° 0 mm 1 mps 760 mmHg 57%
    15:00 0°C° 0 mm 1 mps 760 mmHg 62%
    16:00 -1°C° 0 mm 1 mps 760 mmHg 66%
    17:00 -1°C° 0 mm 1 mps 760 mmHg 71%
    18:00 -1°C° 0 mm 1 mps 759 mmHg 72%
    19:00 -4°C° 0 mm 2 mps 759 mmHg 72%
    20:00 -4°C° 0 mm 2 mps 759 mmHg 73%
    21:00 -5°C° 0 mm 3 mps 759 mmHg 71%
    22:00 -5°C° 0 mm 3 mps 759 mmHg 70%
    23:00 -4°C° 0 mm 3 mps 758 mmHg 68%

    Day after tomorrow, 19 February, Tuesday

    Time Temperature Precipitation Wind Pressure Humidity
    00:00 -4°C° 0 mm 4 mps 758 mmHg 67%
    01:00 -4°C° 0 mm 4 mps 757 mmHg 66%
    02:00 -4°C° 0 mm 4 mps 757 mmHg 66%
    03:00 -3°C° 0 mm 4 mps 756 mmHg 70%
    04:00 -4°C° 0 mm 5 mps 755 mmHg 75%
    05:00 -4°C° 0 mm 5 mps 755 mmHg 79%
    06:00 -4°C° 0 mm 5 mps 754 mmHg 80%
    07:00 -4°C° 0 mm 5 mps 754 mmHg 82%
    08:00 -2°C° 0 mm 5 mps 753 mmHg 83%
    09:00 -1°C° 0 mm 5 mps 753 mmHg 80%
    10:00 0°C° 0 mm 5 mps 752 mmHg 78%
    11:00 0°C° 0 mm 5 mps 752 mmHg 76%
    12:00 +1°C° 0 mm 5 mps 751 mmHg 76%
    13:00 +1°C° 0 mm 5 mps 751 mmHg 76%
    14:00 +2°C° 0 mm 5 mps 750 mmHg 76%
    15:00 +1°C° 0 mm 5 mps 749 mmHg 78%
    16:00 +1°C° 0 mm 5 mps 749 mmHg 81%
    17:00 0°C° 0 mm 5 mps 748 mmHg 84%
    18:00 0°C° 0 mm 5 mps 747 mmHg 85%
    19:00 0°C° 0 mm 5 mps 747 mmHg 87%
    20:00 0°C° 0 mm 5 mps 746 mmHg 88%
    21:00 0°C° 0 mm 5 mps 745 mmHg 88%
    22:00 0°C° 0 mm 5 mps 745 mmHg 87%
    23:00 +1°C° 0 mm 5 mps 744 mmHg 87%

    20 February, Wednesday

    Time Temperature Precipitation Wind Pressure Humidity
    00:00 +1°C° 0.5 mm 5 mps 744 mmHg 88%
    01:00 +1°C° 0.5 mm 5 mps 744 mmHg 89%
    02:00 +1°C° 0.5 mm 5 mps 743 mmHg 90%
    03:00 +1°C° 0.1 mm 5 mps 743 mmHg 90%
    04:00 +1°C° 0.1 mm 4 mps 743 mmHg 91%
    05:00 +1°C° 0.1 mm 4 mps 742 mmHg 92%
    06:00 +1°C° 0.2 mm 5 mps 742 mmHg 90%
    07:00 +1°C° 0.2 mm 5 mps 742 mmHg 88%
    08:00 +1°C° 0.2 mm 5 mps 742 mmHg 86%
    09:00 +1°C° 0.1 mm 5 mps 742 mmHg 85%
    10:00 +1°C° 0.1 mm 6 mps 741 mmHg 83%
    11:00 +2°C° 0.1 mm 6 mps 741 mmHg 82%
    12:00 +2°C° 0.2 mm 6 mps 741 mmHg 81%
    13:00 +1°C° 0.2 mm 6 mps 741 mmHg 80%
    14:00 +1°C° 0.2 mm 6 mps 741 mmHg 79%
    15:00 -1°C° 0.1 mm 6 mps 741 mmHg 75%
    16:00 -2°C° 0.1 mm 6 mps 741 mmHg 70%
    17:00 -2°C° 0.1 mm 5 mps 741 mmHg 66%
    18:00 -3°C° 0.1 mm 6 mps 742 mmHg 70%
    19:00 -4°C° 0.1 mm 6 mps 742 mmHg 75%
    20:00 -4°C° 0.1 mm 6 mps 743 mmHg 80%
    21:00 -4°C° 0.4 mm 6 mps 743 mmHg 80%
    22:00 -4°C° 0.4 mm 7 mps 743 mmHg 81%
    23:00 -4°C° 0.4 mm 7 mps 743 mmHg 81%

    21 February, Thursday

    Time Temperature Precipitation Wind Pressure Humidity
    00:00 -6°C° 0.1 mm 7 mps 744 mmHg 78%
    01:00 -6°C° 0.1 mm 7 mps 745 mmHg 75%
    02:00 -7°C° 0.1 mm 7 mps 745 mmHg 72%
    03:00 -7°C° 0.1 mm 7 mps 746 mmHg 71%
    04:00 -8°C° 0.1 mm 7 mps 747 mmHg 70%
    05:00 -8°C° 0.1 mm 7 mps 748 mmHg 69%
    06:00 -9°C° 0.1 mm 7 mps 749 mmHg 69%
    07:00 -9°C° 0.1 mm 7 mps 750 mmHg 69%
    08:00 -9°C° 0.1 mm 7 mps 750 mmHg 69%
    09:00 -9°C° 0 mm 7 mps 751 mmHg 67%
    10:00 -9°C° 0 mm 7 mps 752 mmHg 65%
    11:00 -8°C° 0 mm 7 mps 753 mmHg 63%
    12:00 -8°C° 0 mm 7 mps 754 mmHg 62%
    13:00 -8°C° 0 mm 6 mps 754 mmHg 61%
    14:00 -8°C° 0 mm 6 mps 755 mmHg 61%
    15:00 -8°C° 0 mm 6 mps 756 mmHg 63%
    16:00 -8°C° 0 mm 6 mps 756 mmHg 64%
    17:00 -8°C° 0 mm 5 mps 757 mmHg 66%
    18:00 -8°C° 0 mm 5 mps 758 mmHg 67%
    19:00 -10°C° 0 mm 5 mps 759 mmHg 68%
    20:00 -10°C° 0 mm 5 mps 759 mmHg 68%
    21:00 -9°C° 0 mm 4 mps 760 mmHg 69%
    22:00 -10°C° 0 mm 4 mps 760 mmHg 70%
    23:00 -10°C° 0 mm 4 mps 761 mmHg 71%

    22 February, Friday

    Time Temperature Precipitation Wind Pressure Humidity
    00:00 -10°C° 0 mm 4 mps 762 mmHg 73%
    01:00 -10°C° 0 mm 4 mps 762 mmHg 76%
    02:00 -10°C° 0 mm 3 mps 763 mmHg 78%
    03:00 -10°C° 0 mm 3 mps 763 mmHg 80%
    04:00 -10°C° 0 mm 3 mps 764 mmHg 81%
    05:00 -10°C° 0 mm 3 mps 764 mmHg 82%
    06:00 -10°C° 0 mm 3 mps 765 mmHg 82%
    07:00 -10°C° 0 mm 3 mps 766 mmHg 82%
    08:00 -10°C° 0 mm 3 mps 766 mmHg 82%
    09:00 -9°C° 0 mm 3 mps 767 mmHg 75%
    10:00 -8°C° 0 mm 3 mps 768 mmHg 69%
    11:00 -7°C° 0 mm 3 mps 768 mmHg 63%
    12:00 -6°C° 0 mm 3 mps 768 mmHg 59%
    13:00 -5°C° 0 mm 4 mps 769 mmHg 55%
    14:00 -4°C° 0 mm 4 mps 769 mmHg 51%
    15:00 -5°C° 0 mm 3 mps 770 mmHg 54%
    16:00 -5°C° 0 mm 3 mps 770 mmHg 57%
    17:00 -5°C° 0 mm 2 mps 770 mmHg 60%
    18:00 -6°C° 0 mm 2 mps 771 mmHg 64%
    19:00 -6°C° 0 mm 2 mps 771 mmHg 68%
    20:00 -7°C° 0 mm 2 mps 772 mmHg 72%
    21:00 -7°C° 0 mm 2 mps 772 mmHg 74%
    22:00 -7°C° 0 mm 2 mps 772 mmHg 75%
    23:00 -7°C° 0 mm 2 mps 772 mmHg 77%
    Show more